Weather History for Martinsville, VA

Change the Weather History Date:

Tuesday, December 24, 2013

  Actual Average (KGSO) Record (KGSO)
Temperature  
Mean Temperature 34 °F 40 °F  
Max Temperature 43 °F 49 °F 71 °F (1964)
Min Temperature 24 °F 31 °F 4 °F (1983)
Degree Days  
Heating Degree Days 32 25  
Month to date heating degree days 553  
Since 1 July heating degree days 1233  
Cooling Degree Days 0 0  
Month to date cooling degree days 0  
Year to date cooling degree days 1483  
Moisture  
Dew Point 20 °F    
Average Humidity 59    
Maximum Humidity 92    
Minimum Humidity 37    
Precipitation  
Precipitation 0.00 in 0.10 in 1.19 in (1986)
Month to date precipitation 2.34  
Year to date precipitation 41.56  
Snow  
Snow 0.00 in 0.00 in 2.60 in (1966)
Month to date snowfall 0.4  
Since 1 July snowfall 0.5  
Snow Depth -    
Sea Level Pressure  
Sea Level Pressure 30.32 in    
Wind  
Wind Speed 7 mph (NNW)    
Max Wind Speed 20 mph    
Max Gust Speed 26 mph    
Visibility 10 miles    
Events      
T = Trace of Precipitation, MM = Missing Value Source: NWS Daily Summary

Daily Weather History Graph

Daily Weather History Graph

Search for Another Location

Airport:

Trip Planner

Search our weather history database for the weather conditions in past years. The results will help you decide how hot, cold, wet, or windy it might be!

Date:

Astronomy

Dec. 24, 2013 Rise Set
Actual Time 7:30 AM EST 5:09 PM EST
Civil Twilight 7:01 AM EST 5:38 PM EST
Nautical Twilight 6:28 AM EST 6:10 PM EST
Astronomical Twilight 5:57 AM EST 6:42 PM EST
Moon No Moon Rise 11:33 AM EST (12/24)
Length of Visible Light 10h 37m
Length of Day
9h 39m
Waning Gibbous, 59% of the Moon is Illuminated
Dec 24
Waning Gibbous
Dec 25
Last Quarter
Jan 1
New
Jan 7
First Quarter
Jan 15
Full

Hourly Weather History & Observations

Time (EST) Temp. Windchill Dew Point Humidity Pressure Visibility Wind Dir Wind Speed Gust Speed Precip Events Conditions
12:15 AM 36.9 °F 33.1 °F 27.7 °F 69% 30.22 in 10.0 mi North 4.6 mph - N/A   Scattered Clouds
12:35 AM 36.1 °F 31.4 °F 27.5 °F 71% 30.22 in 10.0 mi North 5.8 mph - N/A   Clear
12:55 AM 36.5 °F 31.8 °F 26.6 °F 67% 30.21 in 10.0 mi North 5.8 mph - N/A   Clear
1:15 AM 36.5 °F 30.3 °F 26.4 °F 67% 30.21 in 10.0 mi NNW 8.1 mph - N/A   Clear
1:35 AM 35.8 °F 30.9 °F 26.4 °F 69% 30.21 in 10.0 mi North 5.8 mph - N/A   Clear
1:55 AM 35.8 °F 30.1 °F 26.1 °F 68% 30.20 in 10.0 mi North 6.9 mph - N/A   Scattered Clouds
2:15 AM 35.4 °F 29.0 °F 25.7 °F 68% 30.22 in 10.0 mi NNW 8.1 mph - N/A   Scattered Clouds
2:35 AM 35.2 °F 29.5 °F 26.1 °F 69% 30.22 in 10.0 mi NNW 6.9 mph - N/A   Mostly Cloudy
2:55 AM 35.1 °F 31.0 °F 25.9 °F 69% 30.22 in 10.0 mi NNW 4.6 mph - N/A   Overcast
3:15 AM 34.5 °F 30.4 °F 25.7 °F 70% 30.22 in 10.0 mi North 4.6 mph - N/A   Overcast
3:35 AM 33.8 °F 28.6 °F 25.7 °F 72% 30.22 in 10.0 mi North 5.8 mph - N/A   Mostly Cloudy
3:55 AM 33.1 °F 28.7 °F 25.3 °F 73% 30.22 in 10.0 mi North 4.6 mph - N/A   Scattered Clouds
4:15 AM 32.9 °F 27.5 °F 25.3 °F 74% 30.22 in 10.0 mi NNW 5.8 mph - N/A   Clear
4:35 AM 32.4 °F 27.9 °F 25.2 °F 75% 30.22 in 10.0 mi North 4.6 mph - N/A   Clear
4:55 AM 32.0 °F 27.5 °F 24.8 °F 75% 30.22 in 10.0 mi North 4.6 mph - N/A   Clear
5:15 AM 31.6 °F 27.0 °F 25.2 °F 77% 30.22 in 10.0 mi North 4.6 mph - N/A   Clear
5:35 AM 31.8 °F 27.3 °F 24.8 °F 75% 30.22 in 10.0 mi North 4.6 mph - N/A   Clear
5:55 AM 31.5 °F 28.1 °F 24.8 °F 76% 30.23 in 10.0 mi North 3.5 mph - N/A   Clear
6:15 AM 31.1 °F 27.7 °F 25.0 °F 78% 30.24 in 10.0 mi North 3.5 mph - N/A   Clear
6:35 AM 30.9 °F 27.5 °F 24.6 °F 77% 30.24 in 10.0 mi NNE 3.5 mph - N/A   Clear
6:55 AM 29.8 °F 26.3 °F 25.0 °F 82% 30.25 in 10.0 mi North 3.5 mph - N/A   Clear
7:15 AM 30.2 °F - 24.8 °F 80% 30.26 in 10.0 mi Calm Calm - N/A   Clear
7:35 AM 29.3 °F - 24.4 °F 82% 30.27 in 10.0 mi Calm Calm - N/A   Clear
7:55 AM 28.4 °F - 26.2 °F 92% 30.27 in 10.0 mi Calm Calm - N/A   Clear
8:15 AM 29.7 °F - 26.6 °F 88% 30.28 in 10.0 mi Calm Calm - N/A   Clear
8:35 AM 31.6 °F - 26.6 °F 82% 30.28 in 10.0 mi Calm Calm - N/A   Clear
8:55 AM 34.3 °F - 25.3 °F 70% 30.28 in 10.0 mi Calm Calm - N/A   Clear
9:15 AM 35.6 °F - 26.4 °F 69% 30.28 in 10.0 mi Calm Calm - N/A   Clear
9:35 AM 37.8 °F 31.8 °F 26.8 °F 65% 30.29 in 10.0 mi North 8.1 mph - N/A   Scattered Clouds
9:55 AM 38.8 °F 32.6 °F 26.8 °F 62% 30.30 in 10.0 mi NW 9.2 mph - N/A   Scattered Clouds
10:15 AM 40.1 °F 32.7 °F 26.4 °F 58% 30.31 in 10.0 mi North 12.7 mph 18.4 mph N/A   Mostly Cloudy
10:35 AM 39.9 °F 33.9 °F 26.2 °F 58% 30.31 in 10.0 mi North 9.2 mph - N/A   Overcast
10:55 AM 39.4 °F 31.8 °F 26.2 °F 59% 30.31 in 10.0 mi NW 12.7 mph 17.3 mph N/A   Overcast
11:15 AM 40.1 °F 32.7 °F 25.2 °F 55% 30.31 in 10.0 mi NNW 12.7 mph 16.1 mph N/A   Scattered Clouds
11:35 AM 40.8 °F 33.7 °F 24.4 °F 52% 30.30 in 10.0 mi NW 12.7 mph 17.3 mph N/A   Scattered Clouds
11:55 AM 41.0 °F 33.9 °F 23.5 °F 50% 30.30 in 10.0 mi NW 12.7 mph 18.4 mph N/A   Clear
12:15 PM 40.1 °F 32.4 °F 22.3 °F 49% 30.29 in 10.0 mi NW 13.8 mph 20.7 mph N/A   Scattered Clouds
12:35 PM 41.0 °F 34.3 °F 22.5 °F 48% 30.29 in 10.0 mi NW 11.5 mph 18.4 mph N/A   Mostly Cloudy
12:55 PM 42.1 °F 34.2 °F 22.6 °F 46% 30.28 in 10.0 mi NNW 16.1 mph 19.6 mph N/A   Mostly Cloudy
1:15 PM 42.3 °F 37.9 °F 21.0 °F 43% 30.28 in 10.0 mi NW 6.9 mph 21.9 mph N/A   Mostly Cloudy
1:35 PM 43.5 °F 37.5 °F 22.8 °F 44% 30.28 in 10.0 mi NNW 11.5 mph 16.1 mph N/A   Mostly Cloudy
1:55 PM 43.5 °F 36.1 °F 19.4 °F 38% 30.28 in 10.0 mi NW 16.1 mph 23.0 mph N/A   Scattered Clouds
2:15 PM 43.2 °F 35.0 °F 21.4 °F 42% 30.28 in 10.0 mi NNW 18.4 mph 26.5 mph N/A   Mostly Cloudy
2:35 PM 41.5 °F 33.2 °F 19.4 °F 41% 30.29 in 10.0 mi NNW 17.3 mph 25.3 mph N/A   Scattered Clouds
2:55 PM 41.4 °F 35.2 °F 17.8 °F 39% 30.30 in 10.0 mi NW 10.4 mph - N/A   Clear
3:15 PM 41.0 °F 34.3 °F 18.5 °F 40% 30.31 in 10.0 mi NNW 11.5 mph 19.6 mph N/A   Scattered Clouds
3:35 PM 39.7 °F 32.7 °F 18.1 °F 42% 30.32 in 10.0 mi NNW 11.5 mph 21.9 mph N/A   Scattered Clouds
3:55 PM 38.5 °F 30.3 °F 17.8 °F 43% 30.33 in 10.0 mi NNW 13.8 mph 20.7 mph N/A   Clear
4:15 PM 37.9 °F 29.6 °F 17.1 °F 43% 30.35 in 10.0 mi NW 13.8 mph - N/A   Clear
4:35 PM 36.5 °F 26.0 °F 12.6 °F 37% 30.36 in 10.0 mi NNW 19.6 mph 24.2 mph N/A   Clear
4:55 PM 34.7 °F 26.4 °F 12.9 °F 41% 30.37 in 10.0 mi NNW 11.5 mph 18.4 mph N/A   Clear
5:15 PM 33.8 °F 24.3 °F 12.7 °F 42% 30.38 in 10.0 mi NNW 13.8 mph - N/A   Clear
5:35 PM 32.4 °F 24.0 °F 15.3 °F 49% 30.39 in 10.0 mi NW 10.4 mph - N/A   Clear
5:55 PM 32.0 °F 23.6 °F 14.0 °F 48% 30.40 in 10.0 mi NNW 10.4 mph - N/A   Clear
6:15 PM 31.5 °F 26.8 °F 13.3 °F 47% 30.41 in 10.0 mi North 4.6 mph - N/A   Clear
6:35 PM 30.6 °F 22.4 °F 13.5 °F 49% 30.41 in 10.0 mi NNW 9.2 mph - N/A   Clear
6:55 PM 30.9 °F 22.2 °F 13.1 °F 48% 30.42 in 10.0 mi NNW 10.4 mph 16.1 mph N/A   Clear
7:15 PM 30.4 °F 22.2 °F 12.7 °F 48% 30.42 in 10.0 mi NNW 9.2 mph - N/A   Clear
7:35 PM 30.2 °F 19.8 °F 11.8 °F 47% 30.43 in 10.0 mi NNW 13.8 mph - N/A   Clear
7:55 PM 29.3 °F 23.2 °F 12.9 °F 51% 30.44 in 10.0 mi NNW 5.8 mph - N/A   Clear
8:15 PM 28.8 °F 20.2 °F 13.6 °F 53% 30.44 in 10.0 mi NNW 9.2 mph - N/A   Clear
8:35 PM 28.9 °F 19.2 °F 11.5 °F 48% 30.45 in 10.0 mi NNW 11.5 mph - N/A   Clear
8:55 PM 28.4 °F 20.4 °F 11.5 °F 49% 30.45 in 10.0 mi NNW 8.1 mph - N/A   Clear
9:15 PM 27.9 °F 19.1 °F 11.5 °F 50% 30.46 in 10.0 mi NNW 9.2 mph - N/A   Clear
9:35 PM 27.3 °F 20.9 °F 12.2 °F 53% 30.46 in 10.0 mi NNW 5.8 mph - N/A   Clear
9:55 PM 26.6 °F 21.2 °F 12.2 °F 55% 30.47 in 10.0 mi North 4.6 mph - N/A   Clear
10:15 PM 26.2 °F 19.6 °F 12.2 °F 55% 30.47 in 10.0 mi North 5.8 mph - N/A   Clear
10:35 PM 26.6 °F 20.0 °F 10.2 °F 50% 30.47 in 10.0 mi North 5.8 mph - N/A   Clear
10:55 PM 26.2 °F 22.1 °F 10.0 °F 50% 30.48 in 10.0 mi North 3.5 mph - N/A   Clear
11:15 PM 25.9 °F 20.3 °F 8.8 °F 48% 30.48 in 10.0 mi North 4.6 mph - N/A   Clear
11:35 PM 24.1 °F - 12.7 °F 62% 30.48 in 10.0 mi Calm Calm - N/A   Clear
11:55 PM 24.3 °F 17.3 °F 10.9 °F 57% 30.48 in 10.0 mi NW 5.8 mph - N/A   Clear